Naples, FL

7:57 PM EDT on October 19, 2017 (GMT -0400)
Naples Municipal

Weather History for KAPF - March, 2012

Change the Weather History Date:

Wednesday, March 28, 2012

  Actual Average Record
Temperature  
Mean Temperature 74 °F 71 °F  
Max Temperature 86 °F 81 °F 91 °F (1975)
Min Temperature 62 °F 61 °F 44 °F (1969)
Degree Days  
Heating Degree Days 0 0  
Month to date heating degree days 2 19  
Since 1 July heating degree days 121 252  
Cooling Degree Days 9 6  
Month to date cooling degree days 244 153  
Year to date cooling degree days 518 344  
Growing Degree Days 24 (Base 50)    
Moisture  
Dew Point 58 °F    
Average Humidity 57    
Maximum Humidity 84    
Minimum Humidity 30    
Precipitation  
Precipitation 0.00 in 0.09 in 1.21 in (1955)
Month to date precipitation 1.00 2.08  
Year to date precipitation 4.38 6.03  
Snow  
Snow 0.00 in - - ()
Month to date snowfall 0.0  
Since 1 July snowfall 0.0  
Snow Depth 0.00 in    
Sea Level Pressure  
Sea Level Pressure 30.11 in    
Wind  
Wind Speed 9 mph (ESE)    
Max Wind Speed 16 mph    
Max Gust Speed 22 mph    
Visibility 10 miles    
Events      
T = Trace of Precipitation, MM = Missing Value Source: NWS Daily Summary

Daily Weather History Graph

Daily Weather History Graph

Search for Another Location

Airport or City:

Trip Planner

Search our weather history database for the weather conditions in past years. The results will help you decide how hot, cold, wet, or windy it might be!

Date:

Astronomy

Mar. 28, 2012 Rise Set
Actual Time 7:21 AM EDT 7:42 PM EDT
Civil Twilight 6:58 AM EDT 8:05 PM EDT
Nautical Twilight 6:31 AM EDT 8:32 PM EDT
Astronomical Twilight 6:04 AM EDT 8:59 PM EDT
Moon 11:07 AM EDT (3/28) 12:14 AM EDT (3/28)
Length of Visible Light 13h 06m
Length of Day
12h 20m
Waxing Crescent, 30% of the Moon is Illuminated
Mar 28
Waxing Crescent
Mar 30
First Quarter
Apr 6
Full
Apr 13
Last Quarter
Apr 21
New

Hourly Weather History & Observations

Time (EDT) Temp. Heat Index Dew Point Humidity Pressure Visibility Wind Dir Wind Speed Gust Speed Precip Events Conditions
12:53 AM 66.9 °F - 57.9 °F 73% 30.15 in 10.0 mi East 9.2 mph - N/A   Clear
1:53 AM 66.0 °F - 59.0 °F 78% 30.14 in 10.0 mi ENE 8.1 mph - N/A   Clear
2:53 AM 64.0 °F - 57.9 °F 80% 30.13 in 10.0 mi ENE 5.8 mph - N/A   Clear
3:53 AM 64.0 °F - 57.9 °F 80% 30.12 in 10.0 mi East 9.2 mph - N/A   Clear
4:53 AM 64.0 °F - 57.0 °F 78% 30.11 in 10.0 mi ENE 6.9 mph - N/A   Clear
5:53 AM 62.1 °F - 57.0 °F 84% 30.11 in 10.0 mi ENE 5.8 mph - N/A   Clear
6:53 AM 62.1 °F - 57.0 °F 84% 30.13 in 10.0 mi ENE 6.9 mph - N/A   Clear
7:53 AM 63.0 °F - 57.9 °F 84% 30.14 in 9.0 mi East 8.1 mph - N/A   Partly Cloudy
8:53 AM 69.1 °F - 60.1 °F 73% 30.14 in 10.0 mi East 12.7 mph - N/A   Clear
9:53 AM 75.0 °F - 61.0 °F 62% 30.16 in 10.0 mi East 13.8 mph - N/A   Clear
10:53 AM 79.0 °F - 57.9 °F 48% 30.16 in 10.0 mi East 12.7 mph - N/A   Clear
11:53 AM 81.0 °F 80.7 °F 55.0 °F 41% 30.15 in 10.0 mi SE 10.4 mph 18.4 mph N/A   Partly Cloudy
12:53 PM 82.9 °F - 52.0 °F 34% 30.13 in 10.0 mi ESE 9.2 mph 16.1 mph N/A   Partly Cloudy
1:53 PM 84.0 °F - 50.0 °F 31% 30.11 in 10.0 mi SSE 10.4 mph - N/A   Clear
2:53 PM 86.0 °F - 51.1 °F 30% 30.08 in 10.0 mi SSE 9.2 mph - N/A   Partly Cloudy
3:53 PM 81.0 °F 81.6 °F 60.1 °F 49% 30.07 in 10.0 mi WSW 6.9 mph - N/A   Mostly Cloudy
4:53 PM 81.0 °F 81.7 °F 61.0 °F 50% 30.05 in 10.0 mi SW 10.4 mph - N/A   Scattered Clouds
5:53 PM 78.8 °F - 62.6 °F 57% 30.05 in 10.0 mi SW 13.8 mph - N/A   Scattered Clouds
6:53 PM 78.1 °F - 62.1 °F 58% 30.05 in 10.0 mi SW 11.5 mph - N/A   Partly Cloudy
7:53 PM 75.9 °F - 63.0 °F 64% 30.05 in 10.0 mi SSW 6.9 mph - N/A   Clear
8:53 PM 75.9 °F - 60.1 °F 58% 30.06 in 10.0 mi East 6.9 mph - N/A   Scattered Clouds
9:53 PM 73.9 °F - 57.9 °F 57% 30.09 in 10.0 mi East 6.9 mph - N/A   Partly Cloudy
10:53 PM 72.0 °F - 59.0 °F 64% 30.09 in 10.0 mi East 5.8 mph - N/A   Clear
11:53 PM 69.1 °F - 60.1 °F 73% 30.08 in 10.0 mi East 3.5 mph - N/A   Clear